Location: Peterborough
(44.3091°N, 78.3197°W)
Time: 05:54:19
(UTC-04:00)

Altair - All Passes

Search period start: 02 April 2023 00:00
Search period end: 12 April 2023 00:00
Orbit: 1501 x 1682 km, 47.2° (Epoch: 01 April)

Date Brightness Start Highest point End Pass type
(mag) Time Alt. Az. Time Alt. Az. Time Alt. Az.
02 Apr - 02:37:28 10° S 02:44:10 21° SE 02:50:44 10° E visible
02 Apr - 04:38:09 10° SW 04:47:34 62° SSE 04:56:40 10° ENE visible
02 Apr - 06:42:44 10° W 06:52:14 79° N 07:01:29 10° ENE daylight
02 Apr - 08:48:04 10° WNW 08:57:26 82° NNE 09:06:39 10° ESE daylight
02 Apr - 10:53:00 10° WNW 11:01:51 54° SW 11:10:40 10° SE daylight
02 Apr - 12:59:52 10° W 13:04:52 16° SW 13:09:54 10° SSW daylight
03 Apr - 02:12:51 10° SSE 02:19:07 19° SE 02:25:15 10° E visible
03 Apr - 04:13:02 10° SW 04:22:25 59° SE 04:31:29 10° ENE visible
03 Apr - 06:17:28 10° W 06:27:01 80° NNW 06:36:16 10° ENE visible
03 Apr - 08:22:50 10° WNW 08:32:13 80° NNE 08:41:26 10° E daylight
03 Apr - 10:27:47 10° WNW 10:36:44 57° SW 10:45:38 10° SE daylight
03 Apr - 12:34:15 10° W 12:39:51 18° SW 12:45:28 10° SSW daylight
04 Apr - 01:48:20 10° SSE 01:54:04 17° SE 01:59:42 10° E visible
04 Apr - 03:47:57 10° SW 03:57:16 55° SE 04:06:17 10° ENE visible
04 Apr - 05:52:13 10° WSW 06:01:48 82° NNW 06:11:05 10° ENE visible
04 Apr - 07:57:36 10° WNW 08:07:01 79° N 08:16:13 10° E daylight
04 Apr - 10:02:34 10° WNW 10:11:36 61° SSW 10:20:34 10° SE daylight
04 Apr - 12:08:43 10° W 12:14:49 20° SW 12:20:56 10° S daylight
05 Apr - 01:23:56 10° SSE 01:29:02 16° SE 01:34:02 10° E visible
05 Apr - 03:22:52 10° SW 03:32:08 52° SE 03:41:05 10° ENE visible
05 Apr - 05:26:57 10° WSW 05:36:35 84° NNW 05:45:54 10° ENE visible
05 Apr - 07:32:21 10° WNW 07:41:48 77° N 07:51:01 10° E daylight
05 Apr - 09:37:21 10° WNW 09:46:29 65° SSW 09:55:29 10° SE daylight
05 Apr - 11:43:15 10° W 11:49:47 22° SW 11:56:20 10° S daylight
06 Apr - 00:59:41 10° SSE 01:03:59 14° ESE 01:08:14 10° E visible
06 Apr - 02:57:49 10° SSW 03:07:00 49° SE 03:15:53 10° ENE visible
06 Apr - 05:01:42 10° WSW 05:11:22 86° NNW 05:20:42 10° ENE visible
06 Apr - 07:07:06 10° W 07:16:34 76° N 07:25:48 10° E daylight
06 Apr - 09:12:08 10° WNW 09:21:20 69° SSW 09:30:23 10° SE daylight
06 Apr - 11:17:51 10° W 11:24:45 25° SW 11:31:40 10° S daylight
07 Apr - 00:35:44 10° SE 00:38:58 12° ESE 00:42:08 10° ESE visible
07 Apr - 02:32:47 10° SSW 02:41:53 45° SE 02:50:40 10° ENE visible
07 Apr - 04:36:27 10° WSW 04:46:09 89° NNW 04:55:31 10° ENE visible
07 Apr - 06:41:50 10° W 06:51:21 76° N 07:00:34 10° E daylight
07 Apr - 08:46:55 10° WNW 08:56:11 72° SSW 09:05:17 10° SE daylight
07 Apr - 10:52:27 10° WNW 10:59:43 27° SW 11:06:56 10° S daylight
08 Apr - 00:12:40 10° SE 00:13:56 10° ESE 00:15:12 10° ESE visible
08 Apr - 02:07:47 10° SSW 02:16:45 42° SE 02:25:26 10° ENE visible
08 Apr - 04:11:13 10° WSW 04:20:56 89° SSE 04:30:20 10° ENE visible
08 Apr - 06:16:34 10° W 06:26:06 75° N 06:35:21 10° E daylight
08 Apr - 08:21:42 10° WNW 08:31:01 76° SSW 08:40:09 10° SE daylight
08 Apr - 10:27:06 10° WNW 10:34:39 29° SW 10:42:10 10° S daylight
09 Apr - 01:42:48 10° SSW 01:51:38 39° SE 02:00:11 10° ENE visible
09 Apr - 03:45:59 10° WSW 03:55:45 86° SSE 04:05:09 10° ENE visible
09 Apr - 05:51:18 10° W 06:00:53 75° N 06:10:08 10° E visible
09 Apr - 07:56:29 10° WNW 08:05:51 79° SSW 08:15:02 10° ESE daylight
09 Apr - 10:01:47 10° WNW 10:09:36 32° SW 10:17:21 10° SSE daylight
10 Apr - 01:17:51 10° SSW 01:26:32 37° SE 01:34:56 10° ENE visible
10 Apr - 03:20:46 10° WSW 03:30:33 83° SSE 03:39:58 10° ENE visible
10 Apr - 05:26:02 10° W 05:35:39 75° N 05:44:55 10° E visible
10 Apr - 07:31:15 10° WNW 07:40:42 83° SSW 07:49:53 10° ESE daylight
10 Apr - 09:36:28 10° WNW 09:44:32 35° SW 09:52:30 10° SSE daylight
11 Apr - 00:52:57 10° SSW 01:01:26 34° SE 01:09:39 10° ENE visible
11 Apr - 02:55:33 10° WSW 03:05:20 80° SSE 03:14:47 10° ENE visible
11 Apr - 05:00:45 10° W 05:10:25 75° N 05:19:43 10° E visible
11 Apr - 07:06:02 10° WNW 07:15:31 86° SSW 07:24:43 10° ESE daylight
11 Apr - 09:11:11 10° WNW 09:19:27 38° SW 09:27:37 10° SSE daylight
